Location: Carrières
(48.9495°N, 2.0407°E)
Time: 17:29:34
(UTC+00:00)

Cosmos 1606 Rocket - Pass Details

Date: 19 June 2024
Orbit: 599 x 628 km, 82.5° (Epoch: 15 July)

Event Time Altitude Azimuth Distance (km) Brightness Sun altitude
Rises 01:40:47 0° 351° (N) 2,924 8.0 -13.7°
Reaches altitude 10° 01:43:03 10° 354° (N) 2,009 7.1 -13.6°
Maximum altitude 01:47:30 74° 79° (E) 652 3.7 -13.3°
Enters shadow 01:51:44 11° 165° (SSE) 1,917 5.6 -12.9°
